www.pogodaiklimat.ru

Погода и климат >> Архив погоды >> Россия >> Приморский край >> Рудная Пристань


ПОГОДА в Рудной Пристани

  • Прогноз погоды в Рудной Пристани
  • Монитор погоды в Рудной Пристани
  • Климат города

АРХИВ ПОГОДЫ в Рудной Пристани

Время (UTC), дата Ветер
(напр.,м/с)
 
Видим.   Явления Облачность Т
(С)
Тd
(С)
f
(%)
Тe
(С)
Тes
(С)
Комфортность P
(гПа)
Po
(гПа)
Тmin
(С)
Tmax
(С)
R
(мм)
S
(см)
15 19.02 З 3 20 км 4/4 600 м
[Sc]
-9.8 -24.1 30 -15 -15 1011.4 1007.0
18 19.02 СЗ 4 20 км 9/8 600 м
[Sc Ci sp]
-8.7 -26.1 23 -15 -15 1009.5 1005.1
21 19.02 СЗ 3 20 км 10/8 600 м
[Cb cap As trans]
-8.9 -21.8 34 -14 -14 1008.9 1004.5 -12.6 0
00 20.02 СЗ 3 20 км 10/8 600 м
[Sc diur, vesp As trans]
-7.7 -22.4 30 -13 -13 1009.2 1004.8
03 20.02 В 3 20 км 6/0
[Ac lent Ci fib]
-3.4 -19.1 28 -8 -3 1007.7 1003.4
06 20.02 В 3 20 км 8/0
[Ac lent Ci fib]
-3.4 -12.7 49 -8 -6 1006.5 1002.2
09 20.02 ЮЗ 3 20 км 10/6 600 м
[Sc Ac trans Ci sp]
-4.8 -17.8 35 -9 -9 1009.0 1004.7 -2.8 0.0
12 20.02 З 4-11
{16}
20 км 10/8 600 м
[Sc Ci sp]
-8.6 -25.3 25 -15 -15 1012.4 1007.9
15 20.02 З 6-13
{17}
20 км 9/8 600 м
[Sc Ac trans]
-10.2 -25.9 26 -18 -18 1014.4 1009.9
18 20.02 З 2
{19}
20 км 3/3 600 м
[Sc]
-10.5 -27.6 23 -15 -15 1016.6 1012.1
21 20.02 Ю 2 20 км ясно -11.0 -26.9 26 -15 -15 1018.3 1013.8 -11.1 0
00 21.02 З 4-12
{12}
20 км ясно -9.0 -25.5 25 -15 -13 1020.9 1016.4 -11.3
03 21.02 З 6-11
{12}
20 км ясно -4.6 -25.1 18 -11 -8 1020.6 1016.3
06 21.02 З 5-11
{15}
20 км ясно -1.7 -25.3 15 -7 -5 1020.4 1016.1
09 21.02 З 4
{12}
20 км ясно -3.3 -24.8 17 -8 -8 1022.3 1017.9 -1.4
12 21.02 З 1 20 км ясно -6.6 -23.2 25 -8 -8 1024.8 1020.3
15 21.02 СЗ 1 20 км 3/0
[Ci sp]
-8.5 -21.6 34 -10 -10 1024.7 1020.2
18 21.02 СЗ 1 20 км 4/0
[Ci sp]
-8.9 -18.3 46 -11 -11 1023.8 1019.3
21 21.02 З 1 20 км 6/3 600 м
[Sc Ci sp]
-10.1 -18.0 52 -12 -12 1022.7 1018.2 -10.8
00 22.02 З 2 20 км 10/4 600 м
[Sc As trans]
-7.6 -16.1 51 -12 -11 1021.2 1016.8
03 22.02 Ю 1 20 км 10/0
[As trans]
-2.0 -17.0 31 -3 +1 1018.2 1013.9
06 22.02 Ю 3 20 км 10/0
[As trans]
-1.8 -9.2 57 -6 -5 1014.8 1010.5
09 22.02 ЮВ 1 4000 м слабый ливневой снег 10/8 600 м
[Cb cap As op]
-3.9 -4.6 95 -6 -6 1013.5 1009.1 -1.6 0.6
12 22.02 штиль 0 4000 м слабый ливневой снег 10/8 600 м
[Cb cap As op]
-3.6 -4.3 95 -5 -5 1010.9 1006.5
15 22.02 штиль 0 20 км в посл. час ливневой снег 10/8 600 м
[Cb cap As op]
-4.6 -5.4 94 -6 -6 1007.9 1003.5
18 22.02 З 1 20 км {ливн. осадки} 10/6 600 м
[Cb cap Ci sp]
-4.4 -6.2 87 -7 -7 1006.1 1001.8
21 22.02 З 3 20 км 10/4 600 м
[Cb cap Ac lent Ci sp]
-4.4 -8.3 74 -10 -10 1004.5 1000.2 -5.2 1 2
00 23.02 З 3 20 км 10/3 600 м
[Sc diur, vesp Ac trans Ci sp]
-1.6 -10.3 51 -6 -5 1003.9 999.6 -5.4
03 23.02 Ю 3 20 км 8/3 600 м
[Cu med, cong Ac trans Ci sp]
+0.6 -11.5 40 -3 -0 1002.2 997.9
06 23.02 З 5-12
{15}
20 км 10/3 600 м
[Cu med, cong Ac trans Ci sp]
-0.9 -15.5 32 -6 -6 1001.4 997.1
09 23.02 З 7-15
{17}
20 км 8/4 600 м
[Sc diur, vesp Ci sp]
-4.5 -16.5 39 -12 -12 1003.9 999.6 +0.8
12 23.02 З 7-15
{18}
20 км 10/8 600 м
[Sc Ci sp]
-7.0 -18.4 40 -15 -15 1006.0 1001.6
15 23.02 З 5-13
{19}
20 км 3/3 600 м
[Sc]
-7.6 -19.4 38 -15 -15 1006.8 1002.4
18 23.02 З 7-16
{17}
20 км ясно -7.7 -22.6 29 -16 -16 1007.4 1003.0
21 23.02 ЮЗ 5-11
{21}
20 км ясно -8.7 -22.5 32 -16 -16 1009.3 1004.9 -8.7 0
00 24.02 З 4
{15}
40 км ясно -7.0 -22.4 28 -13 -11 1011.5 1007.1 -9.1
03 24.02 З 2
{15}
20 км 8/3 600 м
[Sc Ac lent Ci fib]
-3.1 -21.1 23 -6 -2 1011.2 1006.8
06 24.02 ЮЗ 3
{11}
20 км 8/3 600 м
[Sc Ci]
-2.3 -19.5 25 -6 -5 1010.3 1006.0
09 24.02 З 2 20 км 4/3 600 м
[Sc Ci sp]
-3.4 -19.6 27 -6 -6 1010.7 1006.4 -1.5
12 24.02 штиль 0 20 км ясно -6.7 -16.6 45 -7 -7 1012.1 1007.7
15 24.02 З 2 20 км ясно -10.5 -15.8 65 -15 -15 1011.6 1007.2
18 24.02 З 2 20 км ясно -13.6 -17.0 75 -18 -18 1010.5 1006.0
21 24.02 З 2 20 км ясно -10.6 -17.4 57 -15 -15 1010.2 1005.7 -13.8 0
00 25.02 З 4 20 км ясно -4.1 -14.9 43 -10 -7 1010.3 1006.0 -14.0
03 25.02 З 6-15
{15}
20 км 4/4 600 м
[Cb cap]
-1.7 -17.7 28 -8 -6 1009.4 1005.1
06 25.02 З 7-13
{15}
20 км 4/4 600 м
[Cb cap]
-2.1 -19.8 24 -9 -8 1009.1 1004.8
09 25.02 З 4
{16}
20 км 3/0
[Ci sp]
-5.6 -24.8 20 -11 -11 1011.5 1007.2 -1.4
12 25.02 СЗ 1 20 км ясно -8.9 -23.7 29 -11 -11 1014.6 1010.2
15 25.02 З 1 20 км ясно -11.8 -21.3 45 -14 -14 1015.4 1010.9
18 25.02 З 2 20 км ясно -15.5 -20.5 65 -21 -21 1016.2 1011.6
21 25.02 З 2 20 км ясно -16.7 -20.4 73 -22 -22 1018.1 1013.5 -17.1
00 26.02 З 3-10
{10}
50 км 1/1 600 м
[Sc]
-8.4 -23.2 29 -14 -11 1020.0 1015.6 -17.2
03 26.02 З 3-10
{11}
50 км ясно -6.0 -26.3 18 -11 -4 1019.7 1015.3
06 26.02 З 3
{13}
50 км ясно -3.0 -26.9 14 -7 -4 1019.9 1015.5
09 26.02 ЮЗ 3 50 км 1/1 600 м
[Sc]
-5.4 -27.8 15 -10 -10 1022.4 1018.0 -2.7
12 26.02 З 3
{11}
50 км ясно -7.7 -27.1 19 -13 -13 1025.4 1021.0

 

Местоположение метеостанции Рудная Пристань (Приморский край, Россия): широта 44.37 долгота 135.80 высота над уровнем моря 34 м.

В архиве по умолчанию представлена погода в Рудной Пристани за последнюю неделю. Архивные данные за месяц целиком и за предыдущие месяцы, начиная с января 2011 года, Вы можете получить, выбрав интересующий диапазон дат из раскрывающегося списка и нажав кнопку "Ввод!".

Внимание! Время в таблицах - всемирное. Для получения местного времени необходимо прибавить поправку, которая в Рудной Пристани равна 10 ч.

Смотрите также архив погоды в соседних городах и на ближайших метеорологических станциях:

Погода в Богополе (Приморский край, Россия) (35 км)
Погода в Кавалерово (Приморский край, Россия) (65 км)
Погода в Ольге (Приморский край, Россия) (80 км)
Погода в Тернее (Приморский край, Россия) (94 км)
Погода в Мельничном (Приморский край, Россия) (122 км)
Погода в Малой Кеме (Приморский край, Россия) (154 км)
Погода в Чугуевке (Приморский край, Россия) (161 км)
Погода в Малиново (Приморский край, Россия) (172 км)
Погода в Глубинном (Приморский край, Россия) (193 км)
Погода в Лазо (Приморский край, Россия) (193 км)

Пояснения к столбцам:

Ветер - указаны скорость ветра в м/с - средняя за 10 мин, порывы в срок и между сроками (в фигурных скобках) и направление, откуда дует ветер: С - северный, СВ - северо-восточный, В - восточный, ЮВ - юго-восточный, Ю - южный, ЮЗ - юго-западный, З - западный, СЗ - северо-западный.
Видимость - горизонтальная дальность видимости в метрах или километрах. При видимости от 1 до 10 км при отсутствии осадков обычно наблюдается дымка, при ухудшении видимости до 1 км и менее - туман. В сухую погоду видимость может ухудшаться дымом, пылью или мглою.
Явления - указаны атмосферные явления, наблюдавшиеся в срок или в последний час перед сроком; фигурными скобками обозначены явления, наблюдавшиеся между сроками (за 1-3 часа до срока); квадратными скобками обозначены град или гололедные отложения с указанием их диаметра в мм.
Облачность - указаны через наклонную черту общая и нижняя облачность в баллах и высота нижней границы облаков в метрах; квадратными скобками обозначены формы облаков: Ci - перистые, Cs - перисто-слоистые, Cc - перисто-кучевые, Ac - высококучевые, As - высокослоистые, Sc - слоисто-кучевые, Ns - слоисто-дождевые, Cu - кучевые, Cb - кучево-дождевые. Подробнее классификацию облаков см. в Атласе облаков (PDF).
T - Температура воздуха - температура, измеренная на высоте 2 м над землей.
Td - Температура точки росы - температура, при понижении до которой содержащийся в воздухе водяной пар достигнет насыщения.
f - Относительная влажность воздуха - влажноcть воздуха, измеренная на высоте 2 м над землей.
Te - Эффективная температура - температура, которую ощущает одетый по сезону человек в тени. Характеристика душности погоды. При расчете учитывается влияние влажности воздуха и скорости ветра на теплоощущения человека.
Tes - Эффективная температура на солнце - температура, которую ощущает человек, с поправкой на солнечный нагрев. Характеристика знойности погоды. Зависит от высоты солнца над горизонтом, облачности и скорости ветра. Ночью, в пасмурную погоду, а также при ветре 12 м/с и более поправка равна нулю.
P - Атмосферное давление - приведенное к уровню моря атмосферное давление.
Po - Атмосферное давление - измеренное на уровне метеостанции атмосферное давление.
Tmin - Минимальная температура - минимум температуры воздуха на высоте 2 м над землей.
Tmax - Максимальная температура - максимум температуры воздуха на высоте 2 м над землей.
R - Количество осадков - Количество выпавших осадков, мм. При наведении курсора мыши на число - период времени, за который выпало указанное количество осадков.
S - Снежный покров - Высота снежного покрова, см. При наведении курсора мыши на число - состояние снежного покрова и степень покрытия местности в баллах.